Weather History for KVSH - August, 2013

Change the Weather History Date:

Wednesday, August 28, 2013

  Actual Average (KMAI) Record (KMAI)
Temperature  
Mean Temperature 81 °F 81 °F  
Max Temperature 87 °F 91 °F - ()
Min Temperature 75 °F 71 °F - ()
Degree Days  
Heating Degree Days 0    
Month to date heating degree days  
Since 1 June heating degree days  
Since 1 July heating degree days  
Cooling Degree Days 16    
Month to date cooling degree days  
Year to date cooling degree days  
Since 1 June cooling degree days  
Growing Degree Days 31 (Base 50)    
Moisture  
Dew Point 63 °F    
Average Humidity 53    
Maximum Humidity 73    
Minimum Humidity 35    
Precipitation  
Precipitation 0.00 in 0.12 in - ()
Month to date precipitation 5.03  
Year to date precipitation 37.93  
Sea Level Pressure  
Sea Level Pressure 30.06 in    
Wind  
Wind Speed 2 mph (North)    
Max Wind Speed 9 mph    
Max Gust Speed -    
Visibility 10 miles    
Events      
T = Trace of Precipitation, MM = Missing Value Source: NWS Daily Summary

Daily Weather History Graph

Daily Weather History Graph

Search for Another Location

Airport or City:

Trip Planner

Search our weather history database for the weather conditions in past years. The results will help you decide how hot, cold, wet, or windy it might be!

Date:

Astronomy

Aug. 28, 2013 Rise Set
Actual Time 6:16 AM CDT 7:09 PM CDT
Civil Twilight 5:51 AM CDT 7:34 PM CDT
Nautical Twilight 5:22 AM CDT 8:03 PM CDT
Astronomical Twilight 4:52 AM CDT 8:33 PM CDT
Moon No Moon Rise 1:35 PM CDT (8/28)
Length of Visible Light 13h 42m
Length of Day
12h 53m
Waning Gibbous, 47% of the Moon is Illuminated
Aug 28
Waning Gibbous
Sep 5
New
Sep 12
First Quarter
Sep 19
Full
Sep 26
Last Quarter

Hourly Weather History & Observations

Time (CDT) Temp. Heat Index Dew Point Humidity Pressure Visibility Wind Dir Wind Speed Gust Speed Precip Events Conditions
12:15 AM 80.6 °F 82.7 °F 66.2 °F 61% 30.07 in 10.0 mi South 3.5 mph - N/A   Clear
12:35 AM 80.6 °F 82.7 °F 66.2 °F 61% 30.06 in 10.0 mi Calm Calm - N/A   Clear
12:55 AM 78.8 °F - 66.2 °F 65% 30.06 in 10.0 mi Calm Calm - N/A   Clear
1:15 AM 78.8 °F - 66.2 °F 65% 30.05 in 10.0 mi Calm Calm - N/A   Clear
1:35 AM 78.8 °F - 66.2 °F 65% 30.05 in 10.0 mi Calm Calm - N/A   Clear
1:55 AM 78.8 °F - 66.2 °F 65% 30.04 in 10.0 mi Calm Calm - N/A   Clear
2:15 AM 78.8 °F - 66.2 °F 65% 30.04 in 10.0 mi Calm Calm - N/A   Clear
2:35 AM 78.8 °F - 66.2 °F 65% 30.04 in 10.0 mi Calm Calm - N/A   Clear
2:55 AM 78.8 °F - 66.2 °F 65% 30.03 in 10.0 mi Calm Calm - N/A   Clear
3:15 AM 78.8 °F - 66.2 °F 65% 30.03 in 10.0 mi Calm Calm - N/A   Clear
3:35 AM 78.8 °F - 66.2 °F 65% 30.02 in 10.0 mi Calm Calm - N/A   Clear
3:55 AM 78.8 °F - 66.2 °F 65% 30.03 in 10.0 mi Calm Calm - N/A   Clear
4:15 AM 77.0 °F - 66.2 °F 69% 30.03 in 10.0 mi Calm Calm - N/A   Clear
4:35 AM 75.2 °F - 66.2 °F 73% 30.03 in 10.0 mi Calm Calm - N/A   Clear
4:55 AM 75.2 °F - 66.2 °F 73% 30.03 in 10.0 mi Calm Calm - N/A   Clear
5:15 AM 75.2 °F - 66.2 °F 73% 30.03 in 10.0 mi Calm Calm - N/A   Clear
5:35 AM 75.2 °F - 66.2 °F 73% 30.04 in 10.0 mi Calm Calm - N/A   Clear
5:55 AM 75.2 °F - 66.2 °F 73% 30.04 in 10.0 mi Calm Calm - N/A   Clear
6:15 AM 75.2 °F - 66.2 °F 73% 30.05 in 10.0 mi Calm Calm - N/A   Clear
6:35 AM 75.2 °F - 66.2 °F 73% 30.06 in 10.0 mi Calm Calm - N/A   Clear
6:55 AM 75.2 °F - 66.2 °F 73% 30.06 in 9.0 mi Calm Calm - N/A   Clear
7:15 AM 75.2 °F - 66.2 °F 73% 30.07 in 10.0 mi Calm Calm - N/A   Clear
7:35 AM 77.0 °F - 66.2 °F 69% 30.08 in 10.0 mi NE 4.6 mph - N/A   Partly Cloudy
7:55 AM 77.0 °F - 64.4 °F 65% 30.09 in 10.0 mi NE 3.5 mph - N/A   Partly Cloudy
8:15 AM 78.8 °F - 62.6 °F 57% 30.09 in 10.0 mi NE 3.5 mph - N/A   Scattered Clouds
8:35 AM 78.8 °F - 64.4 °F 61% 30.09 in 10.0 mi NE 4.6 mph - N/A   Mostly Cloudy
8:55 AM 80.6 °F 82.3 °F 64.4 °F 58% 30.09 in 10.0 mi Calm Calm - N/A   Overcast
9:15 AM 80.6 °F 81.8 °F 62.6 °F 54% 30.10 in 10.0 mi NNE 5.8 mph - N/A   Mostly Cloudy
9:35 AM 82.4 °F 83.9 °F 64.4 °F 54% 30.10 in 10.0 mi North 6.9 mph - N/A   Scattered Clouds
9:55 AM 82.4 °F 83.4 °F 62.6 °F 51% 30.11 in 10.0 mi Calm Calm - N/A   Clear
10:15 AM 84.2 °F 84.4 °F 60.8 °F 45% 30.11 in 10.0 mi North 5.8 mph - N/A   Scattered Clouds
10:35 AM 82.4 °F 82.9 °F 60.8 °F 48% 30.10 in 10.0 mi North 6.9 mph - N/A   Mostly Cloudy
10:55 AM 82.4 °F 82.9 °F 60.8 °F 48% 30.10 in 10.0 mi NNE 5.8 mph - N/A   Overcast
11:15 AM 84.2 °F 84.4 °F 60.8 °F 45% 30.10 in 10.0 mi NE 6.9 mph - N/A   Mostly Cloudy
11:35 AM 84.2 °F 84.4 °F 60.8 °F 45% 30.10 in 10.0 mi NNE 8.1 mph - N/A   Mostly Cloudy
11:55 AM 84.2 °F 84.4 °F 60.8 °F 45% 30.09 in 10.0 mi ENE 5.8 mph - N/A   Mostly Cloudy
12:15 PM 84.2 °F 84.4 °F 60.8 °F 45% 30.09 in 10.0 mi NNE 5.8 mph - N/A   Mostly Cloudy
12:35 PM 84.2 °F 84.4 °F 60.8 °F 45% 30.09 in 10.0 mi North 5.8 mph - N/A   Overcast
12:55 PM 84.2 °F 84.4 °F 60.8 °F 45% 30.08 in 10.0 mi NNW 5.8 mph - N/A   Mostly Cloudy
1:15 PM 86.0 °F 86.1 °F 60.8 °F 43% 30.08 in 10.0 mi North 8.1 mph - N/A   Partly Cloudy
1:35 PM 86.0 °F 86.1 °F 60.8 °F 43% 30.07 in 10.0 mi ENE 4.6 mph - N/A   Clear
1:55 PM 87.8 °F 87.6 °F 60.8 °F 40% 30.07 in 10.0 mi NNW 3.5 mph - N/A   Clear
2:15 PM 87.8 °F 87.6 °F 60.8 °F 40% 30.07 in 10.0 mi NE 3.5 mph - N/A   Mostly Cloudy
2:35 PM 86.0 °F 86.1 °F 60.8 °F 43% 30.06 in 10.0 mi NE 9.2 mph - N/A   Scattered Clouds
2:55 PM 86.0 °F 86.1 °F 60.8 °F 43% 30.06 in 10.0 mi NNE 8.1 mph - N/A   Scattered Clouds
3:15 PM 86.0 °F 86.1 °F 60.8 °F 43% 30.05 in 10.0 mi NNW 5.8 mph - N/A   Mostly Cloudy
3:35 PM 87.8 °F 87.6 °F 60.8 °F 40% 30.04 in 10.0 mi NNW 4.6 mph - N/A   Mostly Cloudy
3:55 PM 87.8 °F 87.6 °F 60.8 °F 40% 30.04 in 10.0 mi North 6.9 mph - N/A   Mostly Cloudy
4:15 PM 87.8 °F 87.1 °F 59.0 °F 38% 30.04 in 10.0 mi North 6.9 mph - N/A   Clear
4:35 PM 87.8 °F 87.6 °F 60.8 °F 40% 30.03 in 10.0 mi NW 5.8 mph - N/A   Clear
4:55 PM 87.8 °F 87.6 °F 60.8 °F 40% 30.03 in 10.0 mi NNW 8.1 mph - N/A   Clear
5:15 PM 87.8 °F 87.1 °F 59.0 °F 38% 30.03 in 10.0 mi NNW 5.8 mph - N/A   Clear
5:35 PM 87.8 °F 87.1 °F 59.0 °F 38% 30.03 in 10.0 mi North 5.8 mph - N/A   Clear
5:55 PM 87.8 °F 86.5 °F 57.2 °F 35% 30.03 in 10.0 mi North 3.5 mph - N/A   Clear
6:15 PM 86.0 °F 85.4 °F 59.0 °F 40% 30.03 in 10.0 mi NW 5.8 mph - N/A   Clear
6:35 PM 86.0 °F 85.4 °F 59.0 °F 40% 30.03 in 10.0 mi North 5.8 mph - N/A   Clear
6:55 PM 84.2 °F 84.4 °F 60.8 °F 45% 30.03 in 10.0 mi NW 5.8 mph - N/A   Clear
7:15 PM 84.2 °F 84.4 °F 60.8 °F 45% 30.03 in 10.0 mi North 3.5 mph - N/A   Clear
7:35 PM 84.2 °F 84.4 °F 60.8 °F 45% 30.03 in 10.0 mi North 3.5 mph - N/A   Clear
7:55 PM 84.2 °F 84.4 °F 60.8 °F 45% 30.03 in 10.0 mi Calm Calm - N/A   Clear
8:15 PM 82.4 °F 82.9 °F 60.8 °F 48% 30.03 in 10.0 mi Calm Calm - N/A   Clear
8:35 PM 82.4 °F 82.9 °F 60.8 °F 48% 30.04 in 10.0 mi Calm Calm - N/A   Clear
8:55 PM 82.4 °F 82.9 °F 60.8 °F 48% 30.04 in 10.0 mi Calm Calm - N/A   Clear
9:15 PM 82.4 °F 82.9 °F 60.8 °F 48% 30.04 in 10.0 mi Calm Calm - N/A   Clear
9:35 PM 82.4 °F 82.9 °F 60.8 °F 48% 30.05 in 10.0 mi Calm Calm - N/A   Clear
9:55 PM 82.4 °F 82.9 °F 60.8 °F 48% 30.05 in 10.0 mi Calm Calm - N/A   Clear
10:15 PM 82.4 °F 82.9 °F 60.8 °F 48% 30.05 in 10.0 mi Calm Calm - N/A   Clear
10:35 PM 82.4 °F 83.4 °F 62.6 °F 51% 30.05 in 10.0 mi Calm Calm - N/A   Clear
10:55 PM 82.4 °F 83.4 °F 62.6 °F 51% 30.05 in 10.0 mi Calm Calm - N/A   Clear
11:15 PM 82.4 °F 83.4 °F 62.6 °F 51% 30.05 in 10.0 mi SSW 4.6 mph - N/A   Clear
11:35 PM 80.6 °F 81.8 °F 62.6 °F 54% 30.05 in 10.0 mi SSW 3.5 mph - N/A   Clear
11:55 PM 80.6 °F 82.3 °F 64.4 °F 58% 30.06 in 10.0 mi Calm Calm - N/A   Clear